Location: Hohe Wand Kleine Kanzel
(47.8330°N, 16.0170°E)
Time: 05:20:49
(UTC+02:00)

Explorer 7 - Visible Passes

Search period start: 06 August 2021 00:00
Search period end: 16 August 2021 00:00
Orbit: 484 x 676 km, 50.3° (Epoch: 05 August)

Date Brightness Start Highest point End Pass type
(mag) Time Alt. Az. Time Alt. Az. Time Alt. Az.
06 Aug 7.2 04:20:23 18° SW 04:22:51 44° SSE 04:26:32 10° ENE visible
07 Aug 8.9 02:48:10 14° ESE 02:48:10 14° ESE 02:49:24 10° E visible
07 Aug 6.7 04:24:26 18° SW 04:27:06 64° SSE 04:30:55 10° ENE visible
08 Aug 8.4 02:52:12 20° ESE 02:52:12 20° ESE 02:54:19 10° E visible
08 Aug 6.5 04:28:27 16° WSW 04:31:22 85° SSE 04:35:15 10° ENE visible
09 Aug 7.8 02:56:12 30° ESE 02:56:12 30° ESE 02:58:54 10° E visible
09 Aug 6.7 04:32:27 13° W 04:35:42 76° NNW 04:39:34 10° ENE visible
10 Aug 7.2 03:00:10 44° ESE 03:00:10 44° ESE 03:03:20 10° ENE visible
10 Aug 6.9 04:36:26 11° W 04:40:04 65° N 04:43:55 10° ENE visible
11 Aug 6.6 03:04:09 66° SE 03:04:09 66° SE 03:07:41 10° ENE visible
11 Aug 7.1 04:40:44 10° W 04:44:27 59° N 04:48:16 10° ENE visible
12 Aug 6.4 03:08:07 85° WSW 03:08:13 90° NNW 03:12:01 10° ENE visible
12 Aug 7.2 04:45:07 10° W 04:48:50 58° N 04:52:40 10° E visible
13 Aug 6.6 03:12:06 63° WNW 03:12:33 73° NNW 03:16:21 10° ENE visible
13 Aug 7.1 04:49:29 10° WNW 04:53:13 61° N 04:57:04 10° E visible
14 Aug 9.4 01:39:50 12° ENE 01:39:50 12° ENE 01:40:09 10° ENE visible
14 Aug 6.9 03:16:07 48° WNW 03:16:55 63° N 03:20:41 10° ENE visible
14 Aug 6.9 04:53:50 10° WNW 04:57:35 69° NNE 05:01:28 10° E visible
15 Aug 9.2 01:43:54 14° ENE 01:43:54 14° ENE 01:44:30 10° ENE visible
15 Aug 7.1 03:20:10 39° WNW 03:21:18 58° N 03:25:03 10° ENE visible
15 Aug 6.7 04:58:09 10° WNW 05:01:56 83° NNE 05:05:49 10° ESE visible
